Location: Marcé
(47.5801°N, 0.3280°W)
Time: 08:15:49
(UTC+01:00)

Vanguard 1 - Pass Details

Date: 06 December 2021
Orbit: 652 x 3830 km, 34.2° (Epoch: 24 January)

Event Time Altitude Azimuth Distance (km) Brightness Sun altitude
Rises 02:08:25 0° 250° (WSW) 7,467 - -60.6°
Reaches altitude 10° 02:13:16 10° 247° (WSW) 6,673 - -60.1°
Maximum altitude 02:35:27 56° 178° (S) 4,162 - -57.5°
Exits shadow 02:42:54 43° 132° (SE) 4,322 13.1 -56.6°
Drops below altitude 10° 02:53:57 10° 107° (ESE) 5,698 14.1 -55.1°
Sets 02:57:42 0° 103° (ESE) 6,370 14.5 -54.6°
